Lop Buri, Thailand

11:58 AM ICT on April 19, 2015 (GMT +0700)
Bangkok International | | Change Station
CLOSE
Current Station
Airport
Location: Bangkok (Don Mueang),
Elevation: 13 ft
Nearby Weather Stations

Elev 13 ft 13.92 °N, 100.61 °E | Updated 28 minutes ago

Mostly Cloudy
Mostly Cloudy
93 °F
Feels Like 107 °F
N
7
Wind Variable Wind from South

Today
High -- | Low -- °F
--% Chance of Precip.
Yesterday
High -- | Low -- °F
Precip. -- in
6:01 AM 6:32 PM
New Moon, 0% visible
Pressure 29.83 in
Visibility 6.2 miles
Clouds Few 3000 ft
Mostly Cloudy 30000 ft
Heat Index 107 °F
Dew Point 77 °F
Humidity 59%
Rainfall 0.00 in
Snow Depth Not available.
UV 10 out of 12
Pollen Not available.
Air Quality Not available.
Flu Activity Not available.
METAR VTBD 190430Z 19006KT 140V240 9999 FEW030 BKN300 34/25 Q1010 NOSIG

More Conditions Fewer Conditions

Pressure 29.83 in
Visibility 6.2 miles
Clouds Few 3000 ft
Mostly Cloudy 30000 ft
Heat Index 107 °F
Dew Point 77 °F
Humidity 59%
Rainfall 0.00 in
Snow Depth Not available.
UV 10 out of 12
Pollen Not available.
Air Quality Not available.
Flu Activity Not available.
METAR VTBD 190430Z 19006KT 140V240 9999 FEW030 BKN300 34/25 Q1010 NOSIG

More Conditions Fewer Conditions

10-Day Weather Forecast

Almanac

Astronomy

Apr. 19, 2015 Rise Set
Actual Time
Civil Twilight
Nautical Twilight
Astronomical Twilight
Moon
Length of Visible Light
Length of Day
Tomorrow will be .
, % of the Moon is Illuminated

Today's Extremes

Country Highs Country Lows

Community

WunderPhotos

Upload Photos

1,814,723 photos uploaded!

WunderBlogs® & News

Nearby

Air Quality

  Air Quality AQ Index Pollutant
Not available.

Snow Depth

Station Depth Elevation

Earthquake Activity

City Distance Mag. Time & Date
Minimum magnitude displayed is 2.5.

Coastal Water Temperatures

Place Temperature

Stations

Nearby Weather Stations

Station Location Temp. Windchill Dew Point Humidity Wind Precip. Elev Updated Type